Samedi 21 avril 2018   -   semaine 16                    on fête: Anselme                    soleil  (+4 mn) lever du soleil 06:50:00 coucher du soleil 20:41:00                    lune Premier croissant
Sélection

Sélection d'un SYNOP

   Synop:       

  Période à consulter:

Actuelle
Archive     

Relevé

Dernier relevé du SYNOP pour la période choisie

Conditions météo à la station de Vichy/Charmeil (4610N 00324E)    altitude 251m

Date du relevé21/04/2018 à 09:00
Visibilité19km
Vent6 km/h SSE
Température15.3 C
Température mini / 12h80.7 C
Humidité76.0 %
Point de rosée11.1 C
Pression absolue991.5 hPa
Pression relative1021.2 hPa
Variation pression0.6 hPa en hausse puis stationnaire ou en hausse, puis en hausse plus lente

24h

Historique de la période choisie

Certaines stations ne diffusent pas en continu, d'où l'absence possible de données à certaines heures. Le tableau ci-dessous récapitule l'historique des relevés de la station de Vichy/Charmeil.

Date - Heure Base des nuages Visibilité Nébulosité Vent - Secteur Température Humidité Point rosée Pression / Géopotentiel Précipitations Temps
21/04 09:00 19km 6 km/h SSE 15.3 C 76.0 % 11.1 C 1021.2 hPa
21/04 08:00 19km 4 km/h S 11.5 C 94.8 % 10.7 C 1021.6 hPa 0 mm/12h
21/04 07:00 16km 4 km/h SSO 8.5 C 99.3 % 8.4 C 1021.6 hPa
21/04 06:00 11km 0 km/h N 7.9 C 97.3 % 7.5 C 1021.4 hPa
21/04 05:00 15km 0 km/h N 8.8 C 96.0 % 8.2 C 1021.5 hPa
21/04 04:00 17km 0 km/h N 9.1 C 96.0 % 8.5 C 1021.5 hPa
21/04 03:00 20km 0 km/h N 10.1 C 94.1 % 9.2 C 1021.5 hPa
21/04 02:00 20km 0 km/h N 11.0 C 91.7 % 9.7 C 1021.7 hPa 0 mm/6h
21/04 01:00 20km 0 km/h N 11.8 C 91.1 % 10.4 C 1021.4 hPa
21/04 00:00 20km 0 km/h N 12.8 C 88.2 % 10.9 C 1021.4 hPa
20/04 23:00 20km 2 km/h SO 13.9 C 84.9 % 11.4 C 1021.3 hPa
20/04 22:00 20km 2 km/h O 15.8 C 80.2 % 12.4 C 1020.8 hPa
20/04 21:00 20km 2 km/h NNO 18.9 C 65.1 % 12.2 C 1020.2 hPa
20/04 20:00 19km 6 km/h NE 24.0 C 49.9 % 12.9 C 1019.4 hPa 0 mm/12h
20/04 19:00 20km 7 km/h ENE 26.1 C 41.0 % 11.8 C 1019.3 hPa
20/04 18:00 20km 9 km/h NE 26.6 C 36.0 % 10.3 C 1019.5 hPa
20/04 17:00 19km 9 km/h NE 26.6 C 37.0 % 10.7 C 1020.0 hPa
20/04 16:00 19km 7 km/h NE 26.2 C 41.0 % 11.9 C 1020.7 hPa
20/04 15:00 20km 7 km/h NE 25.8 C 40.1 % 11.2 C 1021.5 hPa
20/04 14:00 19km 6 km/h N 25.3 C 44.1 % 12.2 C 1022.0 hPa 0 mm/6h
20/04 13:00 20km 4 km/h N 24.7 C 45.1 % 12.0 C 1022.6 hPa
20/04 12:00 20km 2 km/h E 22.7 C 44.0 % 9.8 C 1023.4 hPa
20/04 11:00 19km 4 km/h SE 20.8 C 49.0 % 9.7 C 1023.9 hPa
20/04 10:00 19km 6 km/h SSE 17.6 C 57.9 % 9.2 C 1024.1 hPa

Source: ogimet